GFSFLT2_925_spd_000.txt.gz
Wind_Speed
4 5 10 4 4 7 7 2 2 5 8 9 6 7 8 14 13 18 20 20 20 19 28 29 31 36 40 39 39 38 38 36
7 3 4 10 9 3 3 5 5 5 4 6 5 11 9 8 16 18 18 17 18 18 27 32 36 38 39 40 41 41 40 40
7 12 15 3 4 5 6 5 7 4 6 9 10 12 12 14 19 18 17 17 17 19 32 36 37 34 35 35 36 38 44 44
12 4 6 11 11 9 7 6 3 4 7 5 12 6 9 12 15 8 12 16 17 18 26 28 31 32 35 35 33 40 42 41
7 5 1 5 5 6 5 4 8 6 6 2 5 7 8 10 10 9 11 10 11 12 15 23 28 32 32 32 39 36 35 41
17 15 5 5 7 7 7 5 6 7 7 6 9 9 8 9 8 10 12 12 12 11 15 24 28 30 32 34 34 31 33 39
20 9 7 8 7 9 8 7 7 9 10 11 12 13 13 13 7 8 9 10 14 16 13 13 19 23 26 29 30 35 37 38
17 13 11 9 8 9 7 3 7 3 8 9 3 5 6 10 10 11 12 16 13 10 8 10 19 24 24 27 30 32 35 39
11 7 6 5 16 9 6 6 9 8 13 7 6 9 10 10 12 16 15 14 11 12 11 14 22 24 26 28 24 28 30 25
13 4 5 12 4 12 11 3 5 3 6 8 6 2 6 5 10 12 9 8 7 6 7 15 16 20 24 24 26 29 27 22
4 6 4 1 3 4 7 4 4 4 1 5 5 5 5 7 1 5 4 4 4 11 10 11 15 16 20 21 23 24 22 26
2 6 8 4 3 2 4 1 7 4 6 7 6 4 3 6 4 9 9 9 10 9 5 0 6 12 16 15 19 21 25 28
1 2 5 4 9 4 5 3 5 6 0 7 6 5 5 4 11 8 11 13 11 10 8 2 3 12 17 20 24 24 27 26
2 3 1 13 7 6 7 8 4 7 10 15 8 4 7 9 10 11 10 11 11 9 7 5 6 13 17 12 16 22 22 24
2 1 5 8 4 4 4 16 10 12 7 7 8 8 7 7 8 7 8 10 12 9 8 9 3 15 12 16 18 22 23 23
3 6 8 8 8 7 5 8 8 10 13 13 9 11 9 8 6 5 6 7 9 13 12 5 9 9 11 16 19 23 25 25
6 4 1 6 5 5 6 11 13 14 13 10 13 7 6 6 5 5 7 12 10 8 11 12 15 16 18 20 24 25 27 26
5 11 5 8 5 2 13 13 11 14 15 14 13 8 7 8 7 7 6 7 9 9 4 9 15 19 23 30 31 35 29 26
4 10 10 8 10 6 16 12 11 14 9 8 7 6 5 4 8 10 8 5 1 3 5 11 16 22 25 25 19 16 16 21

GFSFLT2_925_spd_003.txt.gz
Wind_Speed
13 8 18 11 14 18 18 1 6 6 6 10 13 14 11 17 15 21 25 25 26 24 29 29 30 33 33 32 33 30 28 28
12 16 15 13 13 11 7 19 18 9 6 8 6 12 12 12 19 22 23 25 24 23 30 32 34 34 32 35 34 33 26 27
12 20 24 11 11 4 6 8 15 15 14 8 14 15 13 15 19 20 21 22 23 22 31 35 35 32 34 32 32 28 29 30
21 3 13 21 21 20 13 12 6 9 13 4 15 16 13 14 11 13 19 20 21 22 28 29 30 31 32 31 31 34 34 30
15 18 14 11 20 22 18 14 18 15 13 3 6 12 13 13 9 9 15 18 19 19 19 26 30 30 32 34 36 36 30 30
15 19 16 14 13 19 20 16 16 16 18 10 10 13 15 14 13 10 14 17 17 17 17 24 28 29 31 31 31 28 30 31
23 25 24 22 21 17 20 25 18 19 18 17 16 16 18 17 9 10 13 15 18 18 16 18 21 23 25 26 25 28 28 28
16 22 24 26 24 18 22 23 19 12 12 13 10 10 9 15 13 14 16 18 20 17 16 16 22 22 20 22 24 23 24 22
8 10 16 22 25 21 14 14 16 15 10 7 7 11 16 16 14 17 17 17 17 17 14 14 16 15 17 19 19 19 19 17
7 2 9 14 19 24 24 21 15 14 11 9 11 5 2 3 10 10 7 6 5 7 10 12 13 14 14 14 16 15 14 15
5 5 11 8 7 9 15 18 7 11 10 3 4 9 3 3 5 6 10 10 10 13 13 14 15 14 14 14 13 13 14 16
3 9 8 3 6 6 3 13 6 8 7 4 6 10 4 4 6 10 11 14 17 17 17 15 14 17 16 13 13 13 14 17
9 9 8 5 14 5 10 6 7 8 7 9 3 4 8 10 13 16 14 15 18 18 17 16 17 16 15 14 12 12 16 17
5 6 8 19 9 5 7 9 15 19 21 20 16 16 14 14 13 17 17 12 14 16 12 11 12 12 14 13 15 17 16 17
5 5 14 11 6 6 13 15 14 20 20 16 17 15 15 12 12 12 11 13 11 10 8 6 6 8 14 14 16 19 19 21
5 4 7 7 8 10 8 10 9 13 15 15 17 13 13 12 10 9 8 10 11 7 6 4 5 7 7 15 18 16 15 16
6 9 5 6 5 7 10 11 15 16 15 12 13 13 11 11 10 9 8 11 8 6 5 4 4 6 10 14 16 19 20 20
7 5 3 5 5 11 14 12 12 16 16 14 14 13 11 11 10 9 9 7 7 6 4 3 5 7 8 11 12 10 12 15
1 12 16 9 10 10 16 14 14 17 15 13 11 12 15 12 13 12 11 8 7 5 3 4 5 8 12 14 12 12 12 12

GFSFLT2_925_spd_006.txt.gz
Wind_Speed
25 18 27 29 26 26 25 20 16 17 14 22 16 15 16 14 13 17 22 26 26 25 32 32 33 33 33 30 29 28 27 26
22 20 26 29 22 24 21 26 24 20 19 12 18 18 17 14 15 17 20 22 25 25 32 35 35 35 34 33 31 27 28 27
22 27 27 21 24 21 23 23 20 18 19 17 16 15 16 14 14 16 18 21 23 25 33 34 34 34 34 31 30 30 29 30
17 27 29 26 26 26 18 27 21 23 20 16 14 18 22 21 16 11 13 18 21 22 27 33 35 34 34 33 31 31 33 30
19 18 16 27 32 29 27 21 26 20 18 18 11 13 13 12 14 7 8 13 17 20 22 27 33 34 35 34 34 32 30 29
17 21 20 25 26 30 30 23 24 27 22 21 19 17 17 15 15 10 9 12 16 18 20 25 29 30 31 33 32 31 29 29
22 22 20 24 28 28 31 32 29 23 29 25 23 21 18 19 17 12 12 14 18 19 18 18 24 26 28 28 28 28 27 26
21 23 25 23 26 28 27 28 30 32 31 23 26 24 24 23 20 15 16 16 19 19 19 20 23 24 24 24 23 22 22 22
17 18 22 24 27 27 29 27 25 25 27 30 26 22 25 22 19 17 18 18 19 20 17 17 22 22 21 20 20 20 20 20
12 2 14 15 19 23 25 28 24 21 18 23 20 18 20 20 14 17 15 15 16 16 15 19 20 21 20 20 20 21 20 21
12 14 8 14 7 17 22 24 27 21 22 14 12 11 14 8 9 13 13 13 15 18 20 23 23 22 22 21 21 21 20 20
9 15 17 2 9 13 13 15 24 26 20 22 13 13 14 8 8 10 14 14 16 24 24 24 25 25 23 22 21 21 21 22
11 11 10 10 13 4 9 7 21 19 21 19 16 5 7 10 9 11 14 17 26 25 23 24 25 24 22 21 19 19 20 20
6 11 15 8 1 2 14 15 9 11 14 14 12 14 14 15 16 18 20 19 25 23 23 21 21 20 19 16 15 16 15 16
10 7 5 5 2 2 7 2 4 10 15 19 22 20 20 19 17 18 20 16 21 20 19 17 15 13 13 13 14 15 15 15
9 5 8 7 8 6 5 7 15 13 18 18 19 22 20 15 15 15 14 13 17 16 14 13 12 13 14 14 13 14 14 13
5 5 10 13 11 6 5 8 14 15 16 15 14 18 20 13 14 13 12 12 11 10 10 10 11 12 12 12 12 13 13 14
5 11 9 9 10 4 9 12 13 17 20 18 18 17 17 15 14 9 10 12 8 8 9 10 11 12 12 14 14 15 13 11
4 9 16 14 9 8 12 12 16 17 17 17 17 16 16 14 9 12 13 12 5 5 7 10 11 13 12 12 12 13 11 11

GFSFLT2_925_spd_009.txt.gz
Wind_Speed
29 26 27 30 29 28 27 24 20 21 26 23 10 17 18 16 18 12 19 22 26 26 30 30 33 35 35 31 32 31 31 28
24 25 26 34 24 27 22 28 26 24 23 18 21 19 18 14 17 14 15 20 23 24 28 32 35 35 35 33 32 31 30 29
23 30 30 20 27 23 26 24 21 20 19 20 15 14 19 21 21 17 15 18 21 23 31 35 35 35 36 35 33 32 32 30
22 24 25 29 28 32 19 29 21 22 19 13 16 19 16 15 14 16 14 18 19 22 26 32 34 36 37 36 37 35 32 31
22 21 23 28 29 31 33 23 26 22 21 23 15 13 14 14 17 20 7 11 17 18 22 23 33 34 37 37 38 36 33 33
18 22 19 25 30 31 29 23 23 27 26 24 23 14 12 14 11 12 6 5 12 17 19 21 30 33 34 36 37 35 34 34
26 25 19 23 27 28 32 31 28 26 30 27 26 23 20 20 15 18 16 13 13 17 16 17 23 31 33 32 33 34 32 32
22 24 24 25 22 28 29 31 33 32 32 25 27 25 19 18 18 18 18 13 14 16 17 18 21 25 31 32 31 33 32 33
21 22 21 23 28 26 24 26 27 28 30 28 29 25 24 24 21 21 22 20 14 16 19 18 27 26 27 30 29 29 28 27
18 17 20 18 18 26 28 27 27 27 24 25 25 26 25 21 20 21 22 23 14 15 18 24 28 29 28 29 29 27 25 23
16 16 10 11 11 5 11 18 26 25 25 28 23 24 24 28 25 21 20 17 12 19 25 25 28 28 26 27 26 24 23 22
14 23 24 11 10 7 5 12 14 17 18 26 19 19 18 24 15 14 15 13 13 22 27 26 25 30 28 28 27 25 25 24
18 16 16 4 7 2 10 7 14 14 19 22 20 19 4 5 15 14 16 12 18 21 20 24 25 28 24 25 25 25 23 22
19 22 24 5 8 12 6 11 13 13 16 22 21 19 6 5 9 12 14 17 23 18 20 23 24 26 22 20 22 23 23 22
13 14 9 8 9 2 7 9 8 8 11 13 4 9 8 9 10 11 13 15 22 21 22 22 22 22 19 18 20 20 20 20
12 12 10 12 9 4 5 4 2 5 1 4 8 11 13 15 15 17 17 17 24 22 19 17 17 17 17 16 18 18 17 18
16 16 16 14 10 9 9 9 11 16 18 9 13 14 15 12 14 14 14 19 21 18 18 18 17 16 14 14 15 16 17 17
9 17 18 14 11 9 10 13 12 15 14 12 16 15 14 12 13 12 13 19 18 18 18 16 16 15 14 13 15 17 17 17
12 20 21 18 19 19 14 12 12 13 14 12 13 13 14 13 12 14 15 17 17 16 17 16 15 15 13 14 14 16 14 15

GFSFLT2_925_spd_015.txt.gz
Wind_Speed
23 20 17 11 18 15 5 8 6 7 9 11 17 13 18 21 27 29 23 21 23 23 31 35 37 39 42 39 39 41 39 41
19 22 17 19 7 12 14 14 17 16 10 10 6 17 16 16 20 20 15 19 19 22 26 37 42 40 43 42 44 42 41 38
10 17 22 13 16 11 7 12 12 9 15 7 9 17 16 18 20 22 23 25 24 24 31 38 39 39 41 43 41 40 40 39
24 18 21 21 10 12 9 6 4 9 14 9 13 8 25 30 22 24 16 30 23 24 23 32 39 39 39 39 42 43 42 39
14 13 17 20 19 11 17 5 12 4 11 18 17 7 6 6 6 7 7 10 19 21 21 20 34 39 39 39 40 42 40 39
17 12 6 8 22 20 15 14 16 21 15 20 7 9 9 15 12 13 8 8 13 22 23 23 34 38 39 39 40 41 40 39
21 16 16 24 16 24 22 18 14 10 16 12 10 10 10 11 9 8 9 9 9 18 20 21 28 36 39 40 42 42 40 39
10 8 24 20 18 19 24 23 19 18 22 7 6 9 6 8 15 12 8 8 8 19 24 22 24 31 37 40 42 42 41 40
9 7 6 15 26 19 11 17 16 18 19 8 11 8 8 11 9 11 10 9 9 10 20 20 29 36 36 41 43 43 40 40
6 6 9 4 10 9 14 10 11 9 13 11 12 11 10 8 6 4 8 6 8 12 9 24 31 36 42 39 41 42 39 39
6 10 3 8 9 5 7 13 8 1 3 8 10 6 7 10 10 11 8 14 5 10 17 23 34 37 35 35 37 39 36 38
3 7 19 3 6 5 3 2 4 10 9 7 5 3 6 5 3 10 12 18 15 20 22 27 30 36 36 35 33 36 39 38
6 8 4 5 4 4 6 5 4 8 7 6 2 4 5 6 5 6 3 11 20 22 18 25 29 35 31 33 34 35 33 30
1 4 4 6 6 5 5 3 4 4 5 2 3 7 5 7 6 5 5 3 13 9 12 27 29 33 23 24 28 31 31 30
5 2 2 3 7 4 7 3 4 6 7 4 7 7 8 5 6 6 9 8 8 9 12 23 28 27 21 25 34 34 32 32
9 11 7 6 4 7 18 15 13 12 11 13 11 13 13 8 8 8 4 9 15 13 12 11 27 26 32 34 37 36 31 30
5 13 20 10 11 3 21 15 10 12 15 14 16 16 13 13 14 12 7 5 18 17 14 16 26 28 30 32 38 32 30 28
3 6 5 7 12 10 15 14 9 15 17 16 16 13 12 14 13 16 24 12 15 19 26 24 28 28 30 34 39 33 27 24
4 3 9 11 21 16 14 11 11 14 13 12 11 11 12 8 9 19 29 33 20 19 23 27 26 28 29 33 35 30 27 26

GFSFLT2_925_spd_021.txt.gz
Wind_Speed
15 7 15 7 10 12 3 2 3 5 7 5 8 12 9 16 18 21 24 25 27 26 30 35 34 38 42 40 40 41 44 43
12 7 8 15 9 4 2 11 12 5 6 6 7 16 10 10 15 18 21 23 24 23 26 39 40 40 42 44 45 45 46 43
6 9 19 5 9 3 7 7 10 6 10 8 10 9 11 11 17 19 19 22 23 22 30 33 35 35 42 41 41 41 40 40
12 8 20 14 18 8 5 11 5 8 12 1 15 15 11 11 15 19 21 22 24 24 20 25 31 34 38 41 41 43 42 41
6 5 0 9 9 19 9 4 21 7 7 6 10 7 8 10 10 12 15 13 12 8 12 17 27 33 35 39 42 41 41 40
7 6 0 8 12 16 17 10 16 18 8 5 7 11 8 9 10 9 9 13 12 9 9 13 27 34 36 39 41 41 40 40
7 15 18 15 13 23 19 22 16 18 12 15 10 11 10 11 8 7 9 12 11 14 12 14 20 29 33 34 35 39 39 39
6 10 13 17 19 25 24 22 16 12 8 9 14 10 6 11 9 10 12 18 20 22 19 19 23 33 37 35 36 39 39 42
6 9 14 11 29 21 20 15 17 20 9 8 9 9 12 12 11 11 12 16 12 19 21 21 27 34 34 38 38 40 42 39
4 7 8 11 12 17 20 8 9 5 10 12 15 16 14 12 11 11 11 11 11 12 10 17 27 30 35 33 37 40 39 37
3 3 10 16 8 12 10 12 7 13 10 7 11 1 7 8 8 12 10 11 12 17 21 25 25 31 30 30 34 34 35 37
5 4 6 2 13 19 5 17 11 12 12 10 8 5 10 8 8 10 10 5 7 17 18 20 22 25 27 28 31 34 37 40
9 5 8 7 24 10 7 13 7 9 10 9 7 7 6 6 4 2 3 6 7 4 10 26 26 25 24 27 28 39 39 38
6 7 9 16 12 7 12 14 3 8 6 8 6 7 7 9 9 9 9 9 12 2 6 10 12 27 25 24 42 39 35 34
8 8 4 2 6 12 12 5 7 4 4 9 9 9 9 9 11 10 8 6 8 7 8 7 8 19 15 34 35 31 30 34
6 4 4 10 13 12 11 7 11 9 13 13 15 9 9 8 8 9 8 9 9 10 9 9 23 17 16 25 26 28 32 36
5 2 4 8 8 11 8 7 13 14 15 14 12 10 8 6 7 6 6 7 13 8 7 9 17 20 26 20 16 24 24 25
7 6 5 6 10 13 5 8 10 11 13 12 12 9 7 7 5 4 5 7 8 10 14 20 24 23 18 21 14 20 21 22
6 5 17 13 6 12 2 8 12 14 11 13 10 8 7 5 6 7 11 14 12 7 11 18 20 21 28 21 11 10 17 15

GFSFLT2_925_spd_024.txt.gz
Wind_Speed
7 5 16 6 11 9 4 1 2 5 8 5 7 10 10 18 12 15 20 21 24 24 28 31 35 38 41 39 40 40 43 44
16 6 8 10 8 4 2 6 6 4 5 6 8 14 13 9 13 17 19 20 22 21 27 35 36 40 39 42 43 43 43 42
7 10 20 3 6 3 6 6 6 0 7 8 10 11 13 16 17 18 18 19 21 20 29 36 35 33 40 40 38 39 40 40
6 2 5 21 11 8 6 11 4 4 9 5 10 12 11 11 12 11 13 16 19 21 21 27 32 34 36 39 39 43 43 41
4 5 1 4 13 7 13 3 16 8 9 10 5 7 10 11 10 9 11 11 12 12 15 18 29 34 35 38 42 39 38 40
3 1 3 6 5 8 16 12 18 19 14 6 6 8 8 9 10 10 10 10 11 11 16 17 29 35 35 35 37 36 36 38
2 12 7 11 14 12 10 22 15 21 24 11 9 10 14 14 7 8 8 8 10 13 13 12 20 28 33 34 36 38 38 38
4 9 10 12 13 14 14 10 10 21 11 9 12 10 7 10 9 10 10 10 10 11 12 14 19 28 33 34 39 41 40 43
4 6 12 15 9 15 9 8 12 17 11 8 7 10 14 16 11 13 13 11 10 14 15 15 23 32 33 37 35 38 41 40
4 4 7 4 9 9 14 17 17 15 8 13 15 15 17 17 16 14 13 12 11 10 12 21 28 27 27 25 34 36 37 36
4 6 13 19 4 5 0 8 11 16 12 9 16 9 8 8 10 14 13 12 11 13 16 22 23 30 30 29 30 29 32 34
1 6 7 3 1 6 4 5 6 10 17 15 8 5 6 11 8 13 10 5 7 12 12 9 27 28 28 25 28 30 34 40
11 6 6 5 6 3 5 5 18 12 15 14 9 12 3 5 5 2 1 2 7 5 6 7 10 22 21 24 27 40 35 33
8 6 15 1 0 2 5 11 17 14 12 8 4 7 5 6 6 6 8 8 12 8 11 11 4 16 10 17 31 20 24 30
9 7 7 5 5 4 5 10 12 12 11 4 9 6 4 5 7 7 7 7 11 13 14 20 20 13 5 9 5 10 19 25
8 11 10 3 4 3 4 9 12 7 7 5 12 8 10 8 7 7 6 6 7 12 10 10 18 18 14 10 5 4 16 23
10 26 7 4 2 3 6 7 8 8 5 3 10 9 8 9 9 6 5 5 10 9 8 8 12 11 9 9 9 7 10 19
8 10 6 3 4 3 9 3 6 5 4 6 6 9 9 11 11 11 10 12 13 14 11 10 11 13 11 8 4 4 9 15
6 10 5 6 4 2 8 3 4 4 6 4 4 7 12 12 11 10 13 13 12 10 13 18 20 20 22 19 10 8 14 19

GFSFLT2_925_spd_027.txt.gz
Wind_Speed
20 12 22 14 23 22 6 1 4 14 15 11 9 19 18 19 16 18 22 24 27 26 31 33 36 38 39 39 39 39 41 39
18 20 23 15 17 10 13 12 12 8 9 13 19 19 18 19 18 19 19 21 23 23 29 34 38 39 41 40 40 40 39 39
14 19 22 10 17 10 11 9 7 6 9 8 16 19 22 22 21 20 19 20 21 22 30 36 34 33 37 40 39 38 40 40
15 12 21 24 19 21 11 11 12 9 6 4 11 8 13 16 14 13 14 17 18 20 23 28 32 33 37 38 40 43 43 41
12 11 8 18 23 21 21 10 15 12 4 9 8 3 7 10 11 12 12 14 14 14 17 20 29 33 35 39 43 41 38 39
12 7 4 4 6 19 23 16 19 21 17 7 3 5 10 10 12 10 10 11 12 13 15 18 28 31 34 37 38 38 39 39
5 8 8 10 12 12 15 21 23 23 27 20 17 16 14 11 10 9 11 10 12 14 14 15 21 28 33 34 34 37 36 38
8 9 8 14 15 14 16 19 17 23 26 17 8 16 18 21 18 16 14 13 12 12 13 16 20 28 32 34 37 39 39 42
6 6 14 16 23 19 17 15 16 23 18 13 15 16 16 19 18 17 14 13 13 14 13 13 23 29 32 37 33 37 40 39
6 4 10 8 3 7 14 14 20 23 20 16 14 16 18 18 19 19 18 17 13 14 13 21 26 26 30 29 34 34 34 31
5 12 16 19 8 2 3 13 7 15 21 20 20 19 17 17 18 20 18 16 13 15 17 18 21 26 26 27 30 30 32 32
5 8 12 3 15 8 4 14 4 5 10 12 18 16 14 14 17 17 17 15 13 14 12 14 16 20 23 27 26 29 33 39
14 11 9 11 7 4 10 1 5 7 12 13 12 13 13 5 4 6 9 12 14 9 9 8 11 19 23 23 26 34 22 21
11 12 21 9 15 18 5 6 11 13 13 15 15 19 18 8 4 4 2 3 6 8 6 3 6 16 16 17 18 16 18 23
10 10 12 11 14 16 12 13 12 14 13 13 18 17 12 8 7 6 6 9 10 11 12 8 7 10 11 9 11 13 18 21
17 23 23 24 24 20 15 16 14 12 13 13 14 10 9 9 8 7 8 9 12 13 12 10 12 12 10 7 6 10 14 18
17 20 20 24 25 19 20 14 10 8 9 4 5 9 8 8 8 7 8 9 10 11 10 11 9 9 5 3 1 5 10 14
12 14 14 19 17 17 17 14 6 6 3 6 9 7 5 5 6 7 8 10 11 12 11 8 8 8 7 6 3 4 6 7
20 19 22 19 19 12 16 10 6 8 3 6 6 6 9 5 3 6 10 11 11 10 10 10 8 9 8 7 5 3 5 8

GFSFLT2_925_spd_030.txt.gz
Wind_Speed
20 21 25 24 25 27 4 3 8 16 19 16 10 18 25 22 18 17 20 22 25 26 32 35 37 38 38 37 38 38 38 36
26 25 24 21 25 21 14 15 18 11 19 12 21 21 19 22 21 18 20 22 22 23 30 36 39 41 42 42 41 41 39 37
22 25 24 22 16 22 18 17 11 9 11 15 16 16 22 21 20 20 19 21 21 22 29 34 34 35 40 40 40 39 40 40
24 24 26 28 24 27 14 23 18 14 6 4 7 14 17 17 18 17 17 17 17 18 21 27 33 36 39 41 41 43 43 42
16 19 23 30 29 25 24 15 21 16 4 11 8 3 5 6 6 7 9 11 12 15 17 19 28 33 35 38 43 42 40 40
19 18 17 25 29 28 27 19 18 17 12 12 3 3 4 6 5 4 6 8 12 14 16 17 25 28 33 36 38 38 40 41
12 4 5 12 27 29 30 27 25 19 21 17 8 9 9 10 9 6 4 3 7 11 13 13 19 25 30 35 34 38 36 39
13 10 8 11 14 15 20 23 25 26 24 13 9 4 12 13 15 17 18 16 13 12 13 14 19 24 28 32 35 36 34 39
14 9 10 15 22 20 19 19 17 23 17 16 17 17 18 17 17 16 16 16 12 12 13 13 19 23 27 31 29 33 35 33
6 7 14 10 8 19 25 21 21 20 17 17 13 15 17 17 18 18 20 18 17 15 12 16 19 19 23 24 29 32 33 33
11 13 10 7 5 7 11 16 18 18 14 15 18 20 23 20 21 20 20 19 17 20 18 17 19 19 18 23 26 29 31 34
8 16 16 4 16 9 5 10 11 5 10 10 8 12 13 16 18 20 19 17 17 20 18 17 19 17 18 22 25 29 33 35
14 13 9 13 7 4 13 5 8 2 6 8 9 10 18 20 17 16 13 15 17 17 16 17 13 15 18 19 26 28 25 27
15 18 23 11 11 13 11 12 13 13 12 14 14 16 18 19 21 21 17 15 15 12 14 15 15 17 17 19 21 22 23 25
12 13 12 11 13 13 13 17 16 17 17 17 18 20 19 19 19 17 16 12 11 11 11 9 10 14 14 15 17 19 20 21
19 23 24 19 17 21 17 20 19 21 20 18 19 20 18 17 11 9 8 6 4 6 8 7 6 8 9 11 13 16 16 17
20 23 22 22 23 23 21 21 24 24 23 20 20 19 15 8 7 3 2 1 2 4 7 9 10 10 8 5 5 9 10 11
18 18 16 19 19 24 23 20 22 19 21 18 14 10 8 4 3 3 5 6 6 6 7 9 9 9 9 7 5 3 4 7
23 23 22 19 17 21 23 19 23 20 17 13 5 6 8 3 3 5 7 9 9 9 8 8 8 9 8 7 6 6 3 2

GFSFLT2_925_spd_033.txt.gz
Wind_Speed
31 24 27 23 25 27 22 23 14 19 27 24 21 26 20 15 23 22 23 22 24 26 32 33 35 37 39 38 40 39 39 37
31 26 29 27 26 23 17 18 16 15 15 18 20 15 27 25 18 23 21 23 23 24 29 36 39 40 40 41 42 45 42 42
25 29 27 26 22 24 20 18 13 11 12 15 19 20 19 20 26 21 20 22 21 23 31 36 36 37 40 40 38 39 42 41
31 28 26 27 28 27 17 24 17 12 3 9 6 7 19 20 18 23 21 19 20 22 23 31 36 38 40 40 42 42 41 42
21 25 28 31 31 25 27 18 21 15 6 9 5 1 13 16 15 16 17 18 20 21 22 20 33 35 39 40 43 42 40 40
17 24 23 28 28 30 24 19 18 20 13 12 9 10 8 5 7 10 5 5 13 16 19 20 27 29 32 36 40 39 40 40
26 17 8 28 31 31 30 24 24 15 19 16 13 11 12 13 9 8 8 7 8 11 12 11 16 22 29 32 32 37 37 39
24 23 6 13 20 33 30 28 25 23 16 18 16 11 7 5 5 5 7 8 7 8 12 15 17 20 24 29 31 31 33 38
15 20 11 17 20 19 23 27 24 22 19 14 5 3 5 6 8 10 10 11 10 11 11 14 20 21 23 25 30 32 33 31
10 17 23 13 16 16 15 15 13 11 9 7 7 8 12 12 12 12 12 11 11 11 12 16 18 21 23 23 27 30 30 33
10 13 5 16 15 20 22 21 17 16 15 13 13 14 16 16 17 17 16 15 14 16 18 15 12 14 16 23 24 27 30 34
9 14 18 7 13 3 3 11 15 23 18 13 10 10 10 10 13 13 15 14 13 17 16 16 18 21 19 21 23 27 33 32
14 10 11 6 5 6 13 5 0 4 3 6 8 8 15 16 16 16 16 15 19 12 13 15 16 17 17 21 22 30 25 27
15 18 21 12 6 6 8 8 13 14 13 11 9 12 15 17 18 17 17 17 18 16 13 12 16 15 15 17 23 20 23 25
15 12 8 9 11 14 4 5 9 10 12 13 16 13 15 16 17 17 15 13 15 16 13 11 10 13 13 15 14 15 20 21
18 18 18 17 17 14 13 11 15 14 14 16 17 18 17 17 16 13 11 10 9 9 8 5 5 9 13 13 14 15 16 17
21 23 21 19 21 20 21 22 20 19 19 20 19 18 17 16 16 9 8 8 7 4 1 3 3 4 3 1 7 12 14 15
17 18 18 20 19 21 21 23 24 22 20 19 19 18 12 14 13 12 6 4 2 1 4 5 5 5 4 3 3 10 11 12
22 25 26 22 21 21 20 20 20 20 21 20 20 16 9 11 10 9 7 5 3 3 6 6 7 5 3 2 3 2 2 4

GFSFLT2_925_spd_036.txt.gz
Wind_Speed
33 24 27 23 26 24 20 20 16 19 28 25 24 25 23 16 21 25 25 23 26 26 29 35 36 38 40 41 40 40 41 36
32 28 29 31 22 21 17 21 20 19 21 19 24 23 24 19 17 21 23 22 23 24 26 36 40 40 40 40 42 44 42 41
28 31 28 22 21 24 19 17 15 13 13 13 25 22 19 21 18 17 20 22 21 24 30 38 38 37 40 39 39 39 43 43
27 28 31 28 28 25 13 22 15 14 4 11 5 20 16 15 21 15 16 20 21 23 24 30 36 37 40 40 38 40 39 38
25 23 30 33 30 27 22 18 19 14 7 7 9 7 15 14 14 18 13 14 20 22 21 22 33 36 37 40 40 36 36 36
18 22 18 28 30 28 27 18 16 18 9 8 6 4 9 13 10 11 12 11 17 19 20 19 30 33 34 37 38 38 37 36
23 25 16 27 26 30 31 21 22 18 18 15 12 9 9 7 6 9 10 6 9 14 17 18 24 32 34 34 38 38 38 40
20 22 20 20 31 30 29 29 23 24 18 20 15 14 10 10 9 10 8 6 4 3 2 3 17 25 35 35 35 39 39 40
18 16 20 19 14 26 24 24 24 20 16 18 21 17 14 11 7 5 1 1 1 2 5 6 9 18 24 31 31 34 38 36
11 13 16 12 11 15 13 24 23 18 15 10 10 11 11 8 5 5 4 4 6 8 8 10 17 21 22 23 31 30 27 32
5 7 8 12 15 18 13 10 7 21 17 9 12 9 7 5 4 3 6 8 7 11 14 13 20 25 29 27 28 27 27 27
8 8 11 5 17 4 11 11 12 8 3 1 4 5 9 13 13 12 12 11 11 16 19 14 12 12 23 25 24 25 31 33
9 6 8 16 20 7 9 5 18 21 19 6 3 10 10 10 11 11 10 11 12 14 14 11 10 12 8 19 24 30 32 29
12 15 15 14 9 7 8 11 15 16 18 17 16 16 14 14 13 13 13 13 13 10 11 18 7 7 11 11 17 16 23 30
10 13 12 9 10 9 10 7 10 12 14 13 14 14 15 15 14 14 15 10 13 11 11 17 3 7 11 13 8 13 15 21
13 17 17 15 14 12 13 13 11 10 13 13 13 15 15 14 14 15 18 10 14 16 11 6 3 5 10 11 9 10 10 14
17 19 18 19 16 17 13 15 16 14 14 13 15 15 15 14 11 12 18 20 12 12 10 8 8 8 10 6 4 10 11 12
15 19 18 18 18 19 17 17 16 16 16 14 13 12 13 14 8 10 15 20 12 9 7 3 2 2 5 5 6 5 8 9
23 25 26 25 24 24 22 17 16 15 13 15 12 13 14 17 7 12 18 19 11 10 6 4 5 4 4 4 2 4 5 3

GFSFLT2_925_spd_042.txt.gz
Wind_Speed
24 20 17 13 17 12 6 3 3 4 5 4 11 11 10 29 24 24 26 27 27 25 36 38 38 43 45 44 43 43 44 41
25 16 20 17 9 8 4 7 5 6 5 6 9 14 8 12 27 29 28 29 26 24 34 40 42 45 45 45 46 44 41 40
2 11 27 6 16 6 6 6 7 4 9 9 10 13 13 12 24 30 29 29 28 26 38 43 41 40 42 40 41 39 40 40
12 10 5 21 7 10 9 10 4 5 11 5 11 16 18 21 18 26 32 31 27 27 33 35 37 37 40 39 39 40 43 40
8 5 3 6 11 9 6 5 9 12 12 2 11 12 16 27 18 20 28 29 26 24 23 27 35 36 38 38 41 41 38 36
7 14 14 7 13 12 10 8 10 14 12 9 12 14 10 7 13 16 21 27 25 23 23 27 35 36 36 37 37 38 37 36
19 25 25 23 17 13 16 17 14 12 7 10 9 12 6 5 9 12 21 25 26 25 22 20 30 34 33 35 37 39 38 37
22 14 18 13 9 7 16 19 7 9 8 8 4 12 6 7 10 10 18 25 27 25 25 22 29 34 34 36 39 39 39 39
6 8 5 5 15 6 11 11 11 8 9 3 10 10 13 10 13 11 8 14 23 25 24 22 33 36 33 37 35 37 37 35
6 8 6 8 19 15 16 19 20 11 5 18 17 14 18 16 12 15 14 12 9 7 8 15 24 26 27 26 33 34 33 33
3 4 2 17 21 15 6 16 21 18 13 20 13 25 17 16 13 8 7 6 7 16 15 16 29 32 32 32 34 32 32 33
4 3 5 17 26 23 11 15 19 18 19 14 8 13 4 10 14 14 13 6 7 13 20 24 12 25 26 29 30 32 35 36
3 1 4 20 27 9 9 3 8 14 13 15 14 4 4 7 14 13 13 17 16 22 18 14 13 13 20 20 26 35 35 33
6 5 4 17 14 8 7 12 11 8 8 8 8 13 13 15 14 15 16 19 24 19 20 24 16 13 13 8 9 20 22 30
4 2 1 10 5 9 12 9 12 16 8 6 10 13 12 12 15 12 13 17 21 19 16 25 29 24 21 16 9 5 15 25
7 4 8 6 3 10 13 14 14 13 15 7 9 9 9 11 13 13 13 15 19 19 17 15 19 20 17 18 17 12 6 6
6 4 11 6 1 11 18 17 18 20 15 15 10 7 8 8 9 9 14 19 22 17 15 17 10 15 16 18 17 16 14 13
5 14 14 20 21 18 13 18 15 14 16 16 8 7 7 7 8 9 15 19 17 20 19 20 11 12 16 17 15 11 11 13
8 11 13 19 17 18 16 17 16 15 13 8 9 4 3 4 8 18 20 17 14 16 16 15 9 6 11 15 14 15 14 13

GFSFLT2_925_spd_045.txt.gz
Wind_Speed
16 14 17 8 19 12 5 3 2 4 5 6 7 13 17 21 22 20 18 19 20 22 32 35 39 41 43 41 42 42 45 44
12 10 11 15 8 7 4 10 5 4 5 7 12 12 14 19 21 21 22 20 18 20 28 34 40 43 41 43 44 45 44 43
8 7 25 8 11 4 6 5 13 2 8 8 9 14 19 19 23 22 23 24 23 23 33 37 34 38 41 40 40 39 40 39
10 16 16 9 11 8 10 13 1 3 16 5 11 13 14 16 19 19 23 25 24 25 31 34 33 34 38 38 38 40 41 40
9 1 6 4 5 7 5 4 9 13 17 6 4 4 6 10 17 16 20 23 24 22 21 27 35 32 36 38 39 40 39 38
6 9 13 11 23 18 9 8 7 14 19 14 14 10 7 7 11 18 23 25 24 21 22 27 34 35 34 36 38 39 37 36
11 19 21 22 23 24 13 12 14 11 12 12 8 6 7 10 11 17 26 26 23 22 20 21 29 31 32 35 37 38 36 35
14 20 17 18 18 19 20 19 6 5 12 3 3 3 11 12 9 11 18 23 24 24 23 22 29 33 35 34 36 38 38 38
7 8 12 6 7 11 4 17 4 9 4 4 6 12 13 15 12 6 19 21 23 23 22 20 33 37 36 38 35 36 35 34
6 8 6 10 11 8 20 21 18 11 8 4 13 8 14 16 13 10 8 9 20 19 20 31 33 34 28 30 33 32 31 31
4 4 2 4 9 11 5 17 19 18 17 6 3 7 14 18 17 12 9 6 4 8 16 23 27 30 29 29 30 30 31 34
3 5 3 4 19 22 11 10 20 18 18 17 7 9 5 18 17 16 16 11 9 12 22 26 25 27 26 25 26 28 32 35
9 5 2 7 21 13 7 1 14 14 15 14 12 2 6 12 14 14 14 17 18 20 17 9 27 32 29 28 30 37 27 26
2 3 4 12 7 7 3 3 10 11 15 10 7 9 9 11 14 16 17 18 23 19 18 18 17 24 16 11 10 17 22 29
1 3 2 10 2 7 8 6 11 12 13 16 12 8 7 8 11 12 13 16 20 17 17 25 28 26 23 15 9 5 17 27
7 6 11 13 6 9 12 12 13 11 12 13 15 12 8 7 9 9 10 13 17 17 15 15 21 22 20 15 13 13 9 4
5 5 16 7 10 13 14 14 15 16 12 12 12 14 6 6 7 8 11 16 18 16 14 15 12 15 16 16 11 9 7 8
3 10 7 14 15 13 10 14 14 14 17 13 10 11 7 6 7 9 11 16 17 18 18 18 12 8 12 14 11 10 8 6
5 13 10 14 14 12 10 10 12 13 10 13 13 9 5 3 8 15 17 18 17 16 18 17 12 8 9 9 8 8 9 8

GFSFLT2_925_spd_048.txt.gz
Wind_Speed
5 4 7 6 14 11 4 1 1 9 4 8 3 13 10 16 15 17 20 20 22 22 31 32 35 39 40 38 39 40 43 44
7 3 8 11 9 9 3 6 5 4 6 8 8 9 10 8 13 15 20 19 20 21 30 36 39 37 38 41 41 42 44 42
6 6 10 6 11 4 7 7 6 1 6 8 11 14 14 14 14 16 18 20 21 23 35 37 34 37 37 39 39 38 38 39
8 5 7 3 4 5 9 12 4 4 6 4 10 11 10 15 14 18 19 21 22 23 27 31 37 38 39 37 37 40 41 40
6 4 4 5 3 5 6 2 20 12 5 5 7 7 10 12 12 8 10 11 15 15 18 26 33 36 38 37 39 38 36 37
5 3 2 6 14 7 4 3 3 12 11 6 7 7 4 7 8 9 9 13 16 16 19 27 33 36 37 36 38 37 36 36
11 12 10 10 16 17 6 12 3 6 10 10 10 10 6 6 5 10 15 13 16 19 19 20 29 30 33 34 38 38 37 35
5 12 14 15 16 15 18 18 11 17 10 4 4 5 4 5 7 8 12 16 19 22 22 21 29 34 36 36 37 38 36 36
5 4 8 6 15 8 6 9 3 6 2 7 1 6 8 8 9 12 14 14 17 23 22 21 33 37 35 38 37 38 37 36
4 2 3 4 3 14 15 14 15 9 13 7 6 7 7 11 12 14 16 13 10 16 18 30 34 36 29 33 36 37 34 32
3 0 5 3 6 6 5 8 15 13 15 11 8 4 4 18 16 13 13 9 7 11 14 24 28 30 30 31 32 31 32 34
3 1 6 5 12 13 4 6 14 15 15 13 9 7 7 20 17 18 16 13 7 18 24 25 26 28 28 28 29 30 33 34
6 2 6 13 23 9 5 2 8 12 13 15 11 2 7 14 15 16 18 18 19 15 13 22 33 32 25 25 29 29 25 28
5 5 4 18 9 6 1 4 5 8 12 12 11 10 10 15 16 19 20 22 27 17 14 10 22 26 21 21 20 25 30 32
1 2 11 13 9 3 5 4 5 8 12 11 11 12 12 12 14 14 16 21 26 21 20 21 18 21 18 8 13 21 27 32
4 2 11 11 2 4 6 4 8 7 8 10 10 11 12 11 12 12 15 18 23 23 20 19 23 24 18 14 12 16 20 23
2 3 11 7 13 11 12 6 8 7 6 8 10 12 11 9 10 10 13 20 21 18 17 18 16 18 17 15 13 15 12 10
2 8 7 9 13 16 14 10 8 10 10 7 7 8 10 9 9 11 13 20 21 21 20 23 19 16 15 14 13 9 7 5
4 13 8 11 11 14 14 15 14 10 9 10 7 6 8 7 8 16 19 22 20 18 21 23 21 19 18 15 13 11 7 5